| time (UTC) | temp F | wind direction | speed knots | gust knots | rain 1hr in | rain 24hr in | rain mn in | humidity % | barometer mb |
| 20260503211950 | 75 | 6 | 3.5 | 5.2 | 0.00 | 0.00 | 0.00 | 42 | 1011.9 |
| 20260503211447 | 75 | 74 | 2.6 | 5.2 | 0.00 | 0.00 | 0.00 | 42 | 1011.9 |
| 20260503210942 | 74 | 83 | 0.0 | 2.6 | 0.00 | 0.00 | 0.00 | 42 | 1012.0 |
| 20260503210439 | 75 | 55 | 0.9 | 5.2 | 0.00 | 0.00 | 0.00 | 42 | 1012.1 |
| 20260503205933 | 75 | 302 | 1.7 | 5.2 | 0.00 | 0.00 | 0.00 | 43 | 1012.2 |
| 20260503205431 | 73 | 38 | 2.6 | 3.5 | 0.00 | 0.00 | 0.00 | 44 | 1012.2 |
| 20260503204927 | 71 | 95 | 0.9 | 1.7 | 0.00 | 0.00 | 0.00 | 52 | 1012.2 |
| 20260503204424 | 71 | 94 | 1.7 | 1.7 | 0.00 | 0.00 | 0.00 | 52 | 1012.4 |
| 20260503203921 | 70 | 99 | 1.7 | 2.6 | 0.00 | 0.00 | 0.00 | 53 | 1012.4 |
| 20260503203419 | 70 | 100 | 1.7 | 2.6 | 0.00 | 0.00 | 0.00 | 54 | 1012.3 |
| 20260503202915 | 69 | 120 | 0.9 | 1.7 | 0.00 | 0.00 | 0.00 | 57 | 1012.5 |
| 20260503202414 | 68 | 92 | 0.9 | 2.6 | 0.00 | 0.00 | 0.00 | 57 | 1012.4 |
| 20260503201912 | 68 | 98 | 0.9 | 2.6 | 0.00 | 0.00 | 0.00 | 55 | 1012.3 |
| 20260503201408 | 69 | 107 | 1.7 | 2.6 | 0.00 | 0.00 | 0.00 | 53 | 1012.5 |
| 20260503200906 | 69 | 119 | 1.7 | 3.5 | 0.00 | 0.00 | 0.00 | 55 | 1012.5 |
| 20260503200402 | 70 | 200 | 2.6 | 5.2 | 0.00 | 0.00 | 0.00 | 52 | 1012.6 |
| 20260503195859 | 70 | 161 | 2.6 | 3.5 | 0.00 | 0.00 | 0.00 | 53 | 1012.6 |
| 20260503195355 | 70 | 219 | 3.5 | 5.2 | 0.00 | 0.00 | 0.00 | 54 | 1012.7 |
| 20260503194853 | 70 | 172 | 2.6 | 2.6 | 0.00 | 0.00 | 0.00 | 54 | 1012.7 |
| 20260503194349 | 71 | 147 | 2.6 | 3.5 | 0.00 | 0.00 | 0.00 | 52 | 1012.8 |
| 20260503193845 | 73 | 96 | 1.7 | 2.6 | 0.00 | 0.00 | 0.00 | 52 | 1012.9 |
| 20260503193341 | 73 | 104 | 0.9 | 1.7 | 0.00 | 0.00 | 0.00 | 50 | 1013.0 |
| 20260503192837 | 71 | 86 | 0.9 | 0.9 | 0.00 | 0.00 | 0.00 | 54 | 1013.0 |
| 20260503192333 | 70 | 74 | 0.9 | 1.7 | 0.00 | 0.00 | 0.00 | 52 | 1012.9 |
| 20260503191829 | 70 | 94 | 1.7 | 3.5 | 0.00 | 0.00 | 0.00 | 54 | 1012.9 |
| 20260503191326 | 69 | 138 | 1.7 | 2.6 | 0.00 | 0.00 | 0.00 | 56 | 1013.1 |
| 20260503190824 | 70 | 178 | 3.5 | 3.5 | 0.00 | 0.00 | 0.00 | 55 | 1013.0 |
| 20260503190321 | 69 | 44 | 1.7 | 1.7 | 0.00 | 0.00 | 0.00 | 58 | 1013.0 |
| 20260503185818 | 69 | 86 | 0.9 | 2.6 | 0.00 | 0.00 | 0.00 | 56 | 1013.2 |
| 20260503185314 | 69 | 87 | 0.9 | 2.6 | 0.00 | 0.00 | 0.00 | 56 | 1013.4 |
| 20260503184813 | 69 | 83 | 0.9 | 2.6 | 0.00 | 0.00 | 0.00 | 57 | 1013.2 |
| 20260503184310 | 69 | 67 | 0.9 | 2.6 | 0.00 | 0.00 | 0.00 | 59 | 1013.3 |
| 20260503183805 | 68 | 114 | 0.9 | 1.7 | 0.00 | 0.00 | 0.00 | 60 | 1013.3 |
| 20260503183303 | 67 | 128 | 2.6 | 5.2 | 0.00 | 0.00 | 0.00 | 59 | 1013.4 |
| 20260503182800 | 68 | 95 | 1.7 | 2.6 | 0.00 | 0.00 | 0.00 | 60 | 1013.6 |
| 20260503182300 | 68 | 171 | 1.7 | 5.2 | 0.00 | 0.00 | 0.00 | 59 | 1013.5 |
| 20260503181756 | 68 | 28 | 3.5 | 5.2 | 0.00 | 0.00 | 0.00 | 59 | 1013.6 |
| 20260503181253 | 68 | 131 | 1.7 | 3.5 | 0.00 | 0.00 | 0.00 | 60 | 1013.5 |
| 20260503180749 | 67 | 96 | 0.0 | 1.7 | 0.00 | 0.00 | 0.00 | 61 | 1013.5 |
| 20260503180248 | 68 | 102 | 3.5 | 3.5 | 0.00 | 0.00 | 0.00 | 59 | 1013.6 |
| 20260503175743 | 66 | 96 | 0.0 | 0.9 | 0.00 | 0.00 | 0.00 | 64 | 1013.8 |
| 20260503175242 | 68 | 112 | 1.7 | 2.6 | 0.00 | 0.00 | 0.00 | 60 | 1013.7 |
| 20260503174737 | 69 | 126 | 3.5 | 3.5 | 0.00 | 0.00 | 0.00 | 56 | 1013.8 |
| 20260503174236 | 69 | 22 | 1.7 | 1.7 | 0.00 | 0.00 | 0.00 | 51 | 1013.9 |
| 20260503173736 | 67 | 74 | 0.9 | 2.6 | 0.00 | 0.00 | 0.00 | 56 | 1013.8 |
| 20260503173232 | 66 | 78 | 0.9 | 2.6 | 0.00 | 0.00 | 0.00 | 56 | 1014.1 |
| 20260503172729 | 66 | 165 | 1.7 | 1.7 | 0.00 | 0.00 | 0.00 | 56 | 1013.9 |
| 20260503172226 | 66 | 51 | 0.9 | 2.6 | 0.00 | 0.00 | 0.00 | 57 | 1014.2 |
| 20260503171723 | 67 | 82 | 0.0 | 0.9 | 0.00 | 0.00 | 0.00 | 57 | 1013.9 |
| 20260503171220 | 66 | 92 | 0.0 | 0.9 | 0.00 | 0.00 | 0.00 | 64 | 1014.1 |
| 20260503170717 | 67 | 113 | 1.7 | 2.6 | 0.00 | 0.00 | 0.00 | 61 | 1013.9 |
| 20260503170214 | 67 | 359 | 2.6 | 2.6 | 0.00 | 0.00 | 0.00 | 58 | 1014.0 |
| 20260503160135 | 64 | 105 | 1.7 | 2.6 | 0.00 | 0.00 | 0.00 | 66 | 1014.3 |
| 20260503150605 | 64 | 91 | 0.9 | 0.9 | 0.00 | 0.00 | 0.00 | 65 | 1014.4 |
| 20260503130955 | 51 | 71 | 0.0 | 0.9 | 0.00 | 0.00 | 0.00 | 84 | 1014.0 |
| 20260503130453 | 52 | 71 | 0.0 | 0.0 | 0.00 | 0.00 | 0.00 | 82 | 1013.8 |
| 20260503110349 | 52 | 73 | 0.0 | 0.9 | 0.00 | 0.00 | 0.00 | 79 | 1014.0 |
| 20260503090240 | 55 | 70 | 0.9 | 1.7 | 0.00 | 0.00 | 0.00 | 73 | 1013.9 |
| 20260503081208 | 55 | 72 | 0.0 | 0.9 | 0.00 | 0.00 | 0.00 | 74 | 1014.0 |
| 20260503080703 | 55 | 65 | 0.9 | 0.9 | 0.00 | 0.00 | 0.00 | 75 | 1014.0 |
| 20260503080201 | 55 | 70 | 0.9 | 1.7 | 0.00 | 0.00 | 0.00 | 75 | 1014.1 |
| 20260503072637 | 55 | 68 | 0.9 | 1.7 | 0.00 | 0.00 | 0.00 | 75 | 1013.8 |
| 20260503072134 | 56 | 73 | 0.9 | 0.9 | 0.00 | 0.00 | 0.00 | 75 | 1013.9 |
| 20260503071631 | 56 | 65 | 0.9 | 0.9 | 0.00 | 0.00 | 0.00 | 74 | 1013.9 |
| 20260503071128 | 56 | 67 | 1.7 | 1.7 | 0.00 | 0.00 | 0.00 | 75 | 1014.0 |
| 20260503070625 | 56 | 67 | 0.9 | 1.7 | 0.00 | 0.00 | 0.00 | 74 | 1014.0 |
| 20260503070123 | 56 | 67 | 0.9 | 0.9 | 0.00 | 0.00 | 0.00 | 73 | 1013.9 |
| 20260503055043 | 59 | 57 | 1.7 | 1.7 | 0.00 | 0.00 | 0.00 | 65 | 1013.6 |
| 20260503054539 | 59 | 55 | 1.7 | 1.7 | 0.00 | 0.00 | 0.00 | 66 | 1013.8 |
| 20260503054037 | 59 | 52 | 1.7 | 2.6 | 0.00 | 0.00 | 0.00 | 66 | 1013.8 |
| 20260503053535 | 59 | 73 | 0.9 | 1.7 | 0.00 | 0.00 | 0.00 | 67 | 1013.8 |
| 20260503053032 | 59 | 67 | 1.7 | 1.7 | 0.00 | 0.00 | 0.00 | 67 | 1013.9 |
| 20260503052529 | 59 | 63 | 0.9 | 1.7 | 0.00 | 0.00 | 0.00 | 66 | 1014.0 |
| 20260503052025 | 59 | 71 | 0.9 | 0.9 | 0.00 | 0.00 | 0.00 | 66 | 1013.8 |
| 20260503051521 | 59 | 72 | 0.0 | 0.9 | 0.00 | 0.00 | 0.00 | 66 | 1013.8 |
| 20260503051019 | 58 | 70 | 0.9 | 0.9 | 0.00 | 0.00 | 0.00 | 68 | 1013.8 |
| 20260503050514 | 58 | 72 | 0.0 | 0.9 | 0.00 | 0.00 | 0.00 | 68 | 1013.9 |
| 20260503050012 | 59 | 75 | 0.0 | 0.9 | 0.00 | 0.00 | 0.00 | 66 | 1013.7 |
| 20260503045509 | 60 | 65 | 0.9 | 0.9 | 0.00 | 0.00 | 0.00 | 65 | 1013.9 |
| 20260503045006 | 59 | 73 | 0.0 | 0.9 | 0.00 | 0.00 | 0.00 | 65 | 1013.8 |
| 20260503044502 | 59 | 64 | 0.9 | 1.7 | 0.00 | 0.00 | 0.00 | 67 | 1013.6 |
| 20260503044000 | 59 | 71 | 0.9 | 0.9 | 0.00 | 0.00 | 0.00 | 65 | 1013.5 |
| 20260503043456 | 59 | 73 | 0.9 | 1.7 | 0.00 | 0.00 | 0.00 | 65 | 1013.7 |
| 20260503042953 | 59 | 73 | 0.0 | 0.9 | 0.00 | 0.00 | 0.00 | 66 | 1013.6 |
| 20260503042450 | 60 | 70 | 0.9 | 0.9 | 0.00 | 0.00 | 0.00 | 65 | 1013.5 |
| 20260503041946 | 60 | 72 | 0.0 | 0.9 | 0.00 | 0.00 | 0.00 | 65 | 1013.5 |
| 20260503041443 | 60 | 70 | 0.9 | 1.7 | 0.00 | 0.00 | 0.00 | 64 | 1013.4 |
| 20260503040941 | 60 | 71 | 0.9 | 0.9 | 0.00 | 0.00 | 0.00 | 64 | 1013.4 |
| 20260503040438 | 60 | 69 | 1.7 | 1.7 | 0.00 | 0.00 | 0.00 | 66 | 1013.5 |
| 20260503035935 | 60 | 65 | 0.0 | 0.9 | 0.00 | 0.00 | 0.00 | 68 | 1013.4 |
| 20260503035431 | 60 | 66 | 0.9 | 1.7 | 0.00 | 0.00 | 0.00 | 67 | 1013.4 |
| 20260503034929 | 60 | 74 | 0.0 | 1.7 | 0.00 | 0.00 | 0.00 | 68 | 1013.3 |
| 20260503034427 | 60 | 72 | 0.0 | 1.7 | 0.00 | 0.00 | 0.00 | 68 | 1013.2 |
| 20260503033923 | 60 | 74 | 0.0 | 0.9 | 0.00 | 0.00 | 0.00 | 68 | 1013.2 |
| 20260503033421 | 60 | 70 | 1.7 | 1.7 | 0.00 | 0.00 | 0.00 | 67 | 1013.0 |
| 20260503032919 | 61 | 70 | 0.0 | 0.9 | 0.00 | 0.00 | 0.00 | 69 | 1013.0 |
| 20260503032417 | 61 | 72 | 0.0 | 0.9 | 0.00 | 0.00 | 0.00 | 68 | 1013.1 |
| 20260503031914 | 62 | 75 | 0.0 | 0.9 | 0.00 | 0.00 | 0.00 | 67 | 1013.0 |
| 20260503031412 | 62 | 74 | 0.0 | 0.9 | 0.00 | 0.00 | 0.00 | 65 | 1012.9 |
| 20260503030908 | 63 | 75 | 0.0 | 0.0 | 0.00 | 0.00 | 0.00 | 64 | 1013.0 |
| 20260503030405 | 63 | 78 | 0.0 | 0.0 | 0.00 | 0.00 | 0.00 | 63 | 1012.9 |
| 20260503025901 | 63 | 80 | 0.0 | 0.0 | 0.00 | 0.00 | 0.00 | 61 | 1012.9 |
| 20260503025359 | 63 | 80 | 0.0 | 0.0 | 0.00 | 0.00 | 0.00 | 62 | 1012.9 |
| 20260503024856 | 64 | 80 | 0.0 | 0.0 | 0.00 | 0.00 | 0.00 | 61 | 1013.0 |
| 20260503024353 | 65 | 81 | 0.0 | 0.9 | 0.00 | 0.00 | 0.00 | 60 | 1012.8 |
| 20260503023850 | 65 | 122 | 0.9 | 1.7 | 0.00 | 0.00 | 0.00 | 58 | 1013.0 |
| 20260503023347 | 66 | 89 | 0.9 | 0.9 | 0.00 | 0.00 | 0.00 | 58 | 1012.9 |
| 20260503022844 | 66 | 108 | 0.9 | 0.9 | 0.00 | 0.00 | 0.00 | 57 | 1012.9 |
| 20260503022344 | 66 | 89 | 1.7 | 1.7 | 0.00 | 0.00 | 0.00 | 56 | 1013.0 |
| 20260503021840 | 66 | 101 | 0.9 | 0.9 | 0.00 | 0.00 | 0.00 | 57 | 1012.8 |
| 20260503021337 | 67 | 96 | 1.7 | 1.7 | 0.00 | 0.00 | 0.00 | 56 | 1012.8 |
| 20260503020834 | 67 | 99 | 0.9 | 1.7 | 0.00 | 0.00 | 0.00 | 55 | 1013.0 |
| 20260503020332 | 68 | 115 | 0.9 | 1.7 | 0.00 | 0.00 | 0.00 | 55 | 1013.1 |
| 20260503015828 | 68 | 113 | 1.7 | 1.7 | 0.00 | 0.00 | 0.00 | 54 | 1013.0 |
| 20260503015325 | 68 | 98 | 0.9 | 1.7 | 0.00 | 0.00 | 0.00 | 54 | 1013.0 |
| 20260503014821 | 68 | 92 | 0.9 | 1.7 | 0.00 | 0.00 | 0.00 | 54 | 1013.1 |
| 20260503014319 | 69 | 80 | 0.0 | 0.9 | 0.00 | 0.00 | 0.00 | 54 | 1013.0 |
| 20260503013816 | 69 | 83 | 0.0 | 1.7 | 0.00 | 0.00 | 0.00 | 52 | 1013.2 |
| 20260503013313 | 70 | 80 | 0.0 | 2.6 | 0.00 | 0.00 | 0.00 | 49 | 1013.1 |
| 20260503012810 | 70 | 107 | 1.7 | 1.7 | 0.00 | 0.00 | 0.00 | 46 | 1013.2 |
| 20260503012308 | 71 | 172 | 1.7 | 2.6 | 0.00 | 0.00 | 0.00 | 46 | 1013.2 |
| 20260503011804 | 72 | 107 | 0.9 | 1.7 | 0.00 | 0.00 | 0.00 | 46 | 1013.3 |
| 20260503011301 | 72 | 81 | 0.0 | 2.6 | 0.00 | 0.00 | 0.00 | 47 | 1013.2 |
| 20260503010757 | 71 | 84 | 0.9 | 2.6 | 0.00 | 0.00 | 0.00 | 46 | 1013.5 |
| 20260503010255 | 71 | 78 | 0.0 | 1.7 | 0.00 | 0.00 | 0.00 | 51 | 1013.5 |
| 20260503005752 | 71 | 157 | 3.5 | 3.5 | 0.00 | 0.00 | 0.00 | 46 | 1013.5 |
| 20260503005249 | 71 | 251 | 0.9 | 2.6 | 0.00 | 0.00 | 0.00 | 49 | 1013.4 |
| 20260503004745 | 70 | 87 | 0.9 | 0.9 | 0.00 | 0.00 | 0.00 | 53 | 1013.4 |
| 20260503004243 | 70 | 129 | 2.6 | 3.5 | 0.00 | 0.00 | 0.00 | 53 | 1013.5 |
| 20260503003740 | 70 | 111 | 1.7 | 2.6 | 0.00 | 0.00 | 0.00 | 53 | 1013.6 |
| 20260503003237 | 70 | 112 | 1.7 | 2.6 | 0.00 | 0.00 | 0.00 | 54 | 1013.4 |
| 20260503002734 | 70 | 99 | 1.7 | 1.7 | 0.00 | 0.00 | 0.00 | 55 | 1013.4 |
| 20260503002231 | 70 | 90 | 0.0 | 0.9 | 0.00 | 0.00 | 0.00 | 54 | 1013.3 |
| 20260503001727 | 70 | 98 | 0.9 | 1.7 | 0.00 | 0.00 | 0.00 | 56 | 1013.4 |
| 20260503001223 | 70 | 82 | 0.9 | 2.6 | 0.00 | 0.00 | 0.00 | 54 | 1013.4 |
| 20260503000722 | 71 | 93 | 0.9 | 5.2 | 0.00 | 0.00 | 0.00 | 52 | 1013.6 |
| 20260503000219 | 71 | 97 | 1.7 | 2.6 | 0.00 | 0.00 | 0.00 | 52 | 1013.6 |
| 20260502235715 | 71 | 88 | 0.9 | 1.7 | 0.00 | 0.00 | 0.00 | 52 | 1013.6 |
| 20260502235213 | 70 | 95 | 0.9 | 2.6 | 0.00 | 0.00 | 0.00 | 55 | 1013.6 |
| 20260502234709 | 71 | 95 | 0.9 | 2.6 | 0.00 | 0.00 | 0.00 | 54 | 1013.7 |
| 20260502234207 | 71 | 96 | 0.9 | 1.7 | 0.00 | 0.00 | 0.00 | 53 | 1013.8 |
| 20260502233702 | 70 | 96 | 0.9 | 3.5 | 0.00 | 0.00 | 0.00 | 54 | 1013.9 |
| 20260502233159 | 70 | 92 | 0.9 | 2.6 | 0.00 | 0.00 | 0.00 | 53 | 1013.9 |
| 20260502232655 | 70 | 88 | 0.9 | 3.5 | 0.00 | 0.00 | 0.00 | 55 | 1014.0 |
| 20260502232153 | 69 | 75 | 1.7 | 5.2 | 0.00 | 0.00 | 0.00 | 55 | 1014.0 |
| 20260502231649 | 68 | 192 | 1.7 | 2.6 | 0.00 | 0.00 | 0.00 | 58 | 1014.1 |
| 20260502231147 | 67 | 79 | 0.0 | 3.5 | 0.00 | 0.00 | 0.00 | 60 | 1014.1 |
| 20260502230645 | 67 | 119 | 2.6 | 3.5 | 0.00 | 0.00 | 0.00 | 59 | 1014.2 |
| 20260502230144 | 67 | 155 | 2.6 | 7.0 | 0.00 | 0.00 | 0.00 | 60 | 1014.2 |
| 20260502225639 | 67 | 198 | 3.5 | 7.0 | 0.00 | 0.00 | 0.00 | 59 | 1014.3 |
| 20260502225136 | 67 | 177 | 2.6 | 5.2 | 0.00 | 0.00 | 0.00 | 60 | 1014.2 |
| 20260502224632 | 66 | 102 | 4.3 | 7.8 | 0.00 | 0.00 | 0.00 | 60 | 1014.5 |
| 20260502224129 | 66 | 120 | 4.3 | 6.1 | 0.00 | 0.00 | 0.00 | 62 | 1014.4 |
| 20260502223627 | 67 | 161 | 3.5 | 7.8 | 0.00 | 0.00 | 0.00 | 61 | 1014.5 |
| 20260502223125 | 67 | 118 | 2.6 | 3.5 | 0.00 | 0.00 | 0.00 | 60 | 1014.6 |
| 20260502222622 | 68 | 83 | 3.5 | 5.2 | 0.00 | 0.00 | 0.00 | 59 | 1014.8 |
| 20260502222119 | 68 | 134 | 1.7 | 3.5 | 0.00 | 0.00 | 0.00 | 59 | 1014.8 |
| 20260502221614 | 69 | 85 | 1.7 | 6.1 | 0.00 | 0.00 | 0.00 | 59 | 1015.0 |
| 20260502221112 | 70 | 102 | 2.6 | 5.2 | 0.00 | 0.00 | 0.00 | 56 | 1014.9 |
| 20260502220608 | 69 | 113 | 0.9 | 3.5 | 0.00 | 0.00 | 0.00 | 55 | 1015.3 |
| 20260502220104 | 69 | 99 | 0.9 | 2.6 | 0.00 | 0.00 | 0.00 | 55 | 1015.3 |
| 20260502215601 | 69 | 88 | 0.9 | 1.7 | 0.00 | 0.00 | 0.00 | 58 | 1015.0 |
| 20260502215058 | 69 | 105 | 0.9 | 5.2 | 0.00 | 0.00 | 0.00 | 58 | 1015.2 |
| 20260502214555 | 69 | 82 | 0.9 | 1.7 | 0.00 | 0.00 | 0.00 | 57 | 1015.1 |
| 20260502214053 | 69 | 107 | 1.7 | 2.6 | 0.00 | 0.00 | 0.00 | 59 | 1015.4 |
| 20260502213549 | 69 | 86 | 0.9 | 3.5 | 0.00 | 0.00 | 0.00 | 57 | 1015.3 |
| 20260502213047 | 69 | 203 | 2.6 | 3.5 | 0.00 | 0.00 | 0.00 | 59 | 1015.2 |
| 20260502212546 | 68 | 106 | 2.6 | 5.2 | 0.00 | 0.00 | 0.00 | 58 | 1015.5 |